TIME,DELAY(SENSOR),PRES,T(CTD),SAL,OXYGEN,RAWTEMP,T(OPTODE),TCPHASE,FLUOR,BETA(BETA700),BETA(BETA412),BETA(BETA440),CDOM,C(CSC),ED(ED412.40),ED(ED444.00),ED(ED489.70),ED(ED554.30),LU(LU411.80),LU(LU443.40),LU(LU489.60),LU(LU554.10),COMP,TILTX,TILTX(TILTY),CHECK
1352928480,5807,496.7699890136719000,6.5862998962402340,34.1262016296386700,77.7579193115234400,600.4758911132812000,6.5688929557800290,49.1832618713378900,51,106,89,81,79,15170,2147746642,2147422153,2148005101,2147872338,2147631149,2147078948,2148247881,2147201389,708,5,13,55225
1352928579,5807,486.1000061035156000,6.6950998306274410,34.1096000671386700,86.0760192871093800,597.0814208984375000,6.6785092353820800,48.1654701232910160,51,102,87,80,78,15172,2147750848,2147420736,2148004973,2147874249,2147629659,2147070537,2148246509,2147199881,1154,4,13,44249
1352928689,5809,474.2600097656250000,6.9042000770568850,34.1147994995117200,92.0617675781250000,590.7484130859375000,6.8827247619628910,47.4035682678222660,51,104,88,80,78,15172,2147746258,2147425453,2148007570,2147873170,2147628726,2147078189,2148246217,2147203337,1036,4,13,38335
1352928807,5806,462.4899902343750000,6.9320001602172850,34.1044998168945300,96.0593795776367200,589.8416137695312000,6.9119338989257810,46.9555206298828100,52,105,88,79,78,15170,2147745344,2147423268,2148004662,2147872905,2147627830,2147072777,2148242468,2147199250,1872,4,13,16236
1352928939,5809,451.4700012207031000,7.0384998321533200,34.0877990722656250,103.4692993164062500,586.5474243164062000,7.0179810523986820,46.1251411437988300,51,104,89,81,77,15173,2147746944,2147420233,2148002752,2147872813,2147626038,2147079168,2148244114,2147200914,1252,4,13,60493
1352929084,5807,440.5700073242187500,7.1718997955322270,34.0842018127441400,110.7921981811523400,582.3643188476562000,7.1525039672851560,45.3166007995605500,52,105,87,79,78,15171,2147745901,2147418971,2148003776,2147872420,2147629083,2147073746,2148238528,2147201856,1037,4,13,29114
1352929249,5808,430.2399902343750000,7.3880000114440920,34.0802001953125000,116.0604019165039000,575.3864746093750000,7.3765449523925780,44.6834106445312500,51,102,90,80,78,15172,2147745362,2147422317,2148001481,2147872512,2147626962,2147078875,2148243017,2147199478,378,4,12,13797
1352929447,5810,418.4899902343750000,7.7711000442504880,34.0836982727050800,131.0516967773437500,563.4462280273438000,7.7589259147644040,43.0876998901367200,52,104,91,79,76,15173,2147743945,2147420278,2148003849,2147872813,2147626432,2147083648,2148238610,2147199497,3079,5,12,62969
1352929590,5805,407.8900146484375000,8.1190996170043950,34.0895004272460940,140.4228057861328000,552.5825805664062000,8.1057605743408200,42.0826187133789060,51,105,90,81,76,15172,2147745581,2147422528,2148004845,2147873737,2147624301,2147087250,2148235218,2147202962,1501,4,13,3071
1352929737,5811,395.2600097656250000,8.6042003631591800,34.0985984802246100,154.2837066650390600,537.4744262695312000,8.5864849090576170,40.6803016662597660,50,104,90,81,76,15171,2147742701,2147421385,2148003181,2147876288,2147622171,2147090761,2148237330,2147202377,2845,4,13,4100
1352929847,5807,384.3599853515625000,8.8416004180908200,34.1013984680175800,160.1143035888672000,529.7532958984375000,8.8314552307128900,40.0903015136718750,50,104,90,80,74,15167,2147744868,2147421988,2148001682,2147874340,2147619748,2147092699,2148229440,2147207552,3389,4,13,17845
1352929970,5811,372.5899963378906000,9.1371002197265620,34.1057014465332000,168.6141967773437500,520.4765014648438000,9.1251773834228520,39.2919197082519500,50,106,89,79,74,15169,2147740443,2147422235,2148001024,2147873600,2147618642,2147093248,2148230509,2147203090,3012,4,13,62788
1352930091,5812,361.4100036621094000,9.4756002426147460,34.1133995056152340,177.7153015136718800,509.6690979003906000,9.4665508270263670,38.4538116455078100,50,106,87,81,73,15170,2147737344,2147421970,2148001590,2147870610,2147616877,2147099748,2148231524,2147205110,290,4,13,2636
1352930212,5810,350.5599975585937500,9.7867002487182620,34.1151008605957000,183.8202972412109400,499.2723999023437500,9.7941551208496100,37.8566017150878900,50,106,88,81,72,15168,2147738276,2147423862,2148003209,2147871725,2147618002,2147098541,2148226843,2147202249,1054,3,13,31182
1352930346,5810,338.9100036621094000,10.2604999542236330,34.1222000122070300,193.4096984863281200,484.9074096679687500,10.2455797195434570,36.9832801818847660,48,108,89,80,72,15166,2147735835,2147424420,2148005101,2147874870,2147613997,2147103853,2148225170,2147206290,1273,4,13,41985
1352930467,5810,327.5700073242187500,10.3509998321533200,34.1263999938964840,196.3773956298828000,481.4603881835937500,10.3536901473999020,36.7371215820312500,49,107,87,80,71,15165,2147736685,2147421595,2148005174,2147872192,2147615186,2147106505,2148225325,2147206985,2317,4,14,6520
1352930590,5807,315.5199890136719000,10.9054002761840820,34.1403999328613300,200.1401977539062500,462.6925964355469000,10.9410295486450200,36.1918487548828100,48,106,86,80,71,15168,2147736082,2147424310,2148011053,2147872182,2147610066,2147104612,2148227254,2147203712,2870,4,13,44353
1352930711,5805,304.3099975585937500,11.3795003890991210,34.1595001220703100,204.3184051513672000,448.3501892089844000,11.3884496688842770,35.7038688659668000,50,105,89,79,70,15166,2147729929,2147422738,2148002276,2147870080,2147606921,2147112347,2148218450,2147204342,344,4,13,44081
1352930843,5810,293.4200134277344000,11.8403997421264650,34.1659011840820300,207.9528961181640600,433.5863037109375000,11.8478002548217770,35.2499504089355500,48,105,85,80,69,15165,2147729033,2147427410,2148016941,2147869750,2147604461,2147117549,2148226614,2147207104,747,4,13,17351
1352930988,5805,283.1700134277344000,12.5433998107910160,34.1968994140625000,209.9523925781250000,411.4939880371094000,12.5330600738525390,34.7834091186523440,48,104,89,81,69,15163,2147727369,2147427017,2148016192,2147871314,2147603373,2147117028,2148220544,2147209060,801,4,14,16600
1352931164,5809,271.6000061035156000,13.0050001144409180,34.2374000549316400,210.9275970458984400,395.8171997070312500,13.0179100036621100,34.4824600219726560,48,107,85,80,70,15159,2147726171,2147426486,2148014372,2147872502,2147597092,2147131721,2148218916,2147207122,890,4,13,42803
1352931308,5806,259.4800109863281000,13.3059997558593750,34.2579994201660160,211.2769927978515600,386.6214904785156000,13.3018198013305660,34.3206901550293000,48,102,86,81,69,15164,2147726582,2147435328,2148035373,2147871314,2147594770,2147132754,2148222537,2147213056,3526,3,14,39612
1352931418,5810,248.2899932861328000,13.9809999465942380,34.3101997375488300,211.4371032714843800,364.8157958984375000,13.9737300872802730,33.9780998229980500,49,107,88,81,68,15161,2147725284,2147449051,2148082669,2147867766,2147596141,2147144228,2148245869,2147211574,2610,3,15,19321
1352931530,5806,237.5800018310547000,15.0410995483398440,34.4188003540039060,211.5791931152343800,331.4238891601562500,14.9995298385620120,33.4701690673828100,49,106,90,81,69,15162,2147722907,2147464914,2148126180,2147871076,2147593243,2147152347,2148264292,2147215716,2065,4,13,54881
1352931662,5810,227.2200012207031200,16.1875991821289060,34.5606994628906250,212.5366973876953000,293.6784973144531000,16.1555995941162100,32.8652000427246100,50,104,87,81,67,15158,2147724480,2147483949,2148171529,2147868352,2147586596,2147176640,2148281590,2147218221,2165,3,13,13629
1352931871,5806,213.6199951171875000,17.4622001647949220,34.7162017822265600,213.8130035400390600,250.0222015380859400,17.4898700714111330,32.1738395690918000,50,103,87,80,66,15159,2147722669,2147529600,2148275867,2147869988,2147581632,2147216420,2148319552,2147222189,2759,3,14,1239
1352932016,5809,201.9700012207031200,18.6424999237060550,34.8944015502929700,219.8619995117187500,212.6197052001953000,18.6321105957031250,31.3332805633544920,50,103,87,80,64,15153,2147733458,2147578130,2148372672,2147869924,2147577965,2147253467,2148366582,2147225216,2156,3,14,5402
1352932071,5805,197.2700042724609400,18.9211006164550780,34.9434013366699200,219.1867980957031200,200.4588928222656200,19.0035591125488280,31.2031803131103500,50,102,88,80,65,15153,2147734354,2147602276,2148427245,2147873545,2147580480,2147276589,2148390436,2147229238,1612,3,15,54384
1352932126,5809,192.5000000000000000,19.3006000518798830,34.9971008300781250,218.4953002929687500,188.6121978759765600,19.3655204772949220,31.0789299011230470,52,104,85,80,64,15148,2147740836,2147632018,2148486555,2147869924,2147579748,2147296585,2148420644,2147231040,1631,3,15,52585
1352932200,5809,186.1999969482422000,19.7047996520996100,35.0651016235351560,219.7407989501953000,176.1443939208984400,19.7466201782226560,30.8461208343505860,52,103,91,81,64,15150,2147746221,2147689307,2148614610,2147872347,2147581860,2147331044,2148479259,2147234413,1777,3,14,41508
1352932255,5805,181.8500061035156200,19.8971996307373050,35.0733985900878900,221.6410064697265600,171.3495941162109400,19.8932399749755860,30.6844902038574220,54,107,88,81,63,15147,2147723218,2147537536,2148229696,2147873161,2147570953,2147247588,2148288713,2147219483,2241,3,14,2222
1352932310,5805,177.5000000000000000,19.9689998626709000,35.0862007141113300,221.6251068115234400,169.0111999511718800,19.9647502899169920,30.6538391113281250,53,104,87,80,64,15146,2147767323,2147769078,2148763958,2147872685,2147591853,2147386834,2148550482,2147239506,2326,3,15,8744
1352932365,5808,173.0599975585937500,19.9874992370605470,35.0765991210937500,219.9548950195312500,167.9907989501953000,19.9959602355957030,30.7260704040527340,54,107,87,80,64,15144,2147781266,2147823085,2148897069,2147872914,2147596269,2147419629,2148616338,2147245412,2479,3,15,6437
1352932420,5811,168.6100006103515600,20.0694999694824220,35.0806007385253900,219.1065063476562500,165.7657928466797000,20.0640201568603500,30.7400703430175780,55,104,87,81,64,15142,2147798409,2147894262,2149031945,2147874596,2147601673,2147469394,2148684608,2147252864,2791,2,15,55205
1352932475,5808,164.2299957275390600,20.0834999084472660,35.0741004943847660,217.7546997070312500,164.6954040527343800,20.0967597961425780,30.7960205078125000,56,105,88,80,64,15139,2147823570,2147980160,2149193472,2147874386,2147610596,2147512164,2148765028,2147259190,2849,3,15,5277
1352932553,5807,158.6900024414062500,20.3292007446289060,35.1007003784179700,216.1103973388672000,157.4806060791015600,20.3175201416015620,30.7858505249023440,59,106,87,82,63,15141,2147874697,2148150857,2149531419,2147877010,2147633874,2147609280,2148926427,2147266889,2762,3,15,1550
1352932608,5808,155.3899993896484400,20.3742008209228500,35.1123008728027340,217.2209014892578000,155.6757965087890600,20.3727607727050780,30.7035102844238280,59,105,90,81,63,15140,2147889718,2148181120,2149581888,2147877275,2147637248,2147631204,2148938605,2147266477,2886,3,16,28238
1352932674,5807,151.4600067138672000,20.4309997558593750,35.1265983581543000,218.5000000000000000,153.8822021484375000,20.4276599884033200,30.6133899688720700,61,104,89,80,64,15138,2147932260,2148302153,2149819520,2147878171,2147659538,2147706121,2149055296,2147276946,3087,2,15,48300
1352932751,5804,146.9199981689453000,20.4729003906250000,35.1228981018066400,218.8759002685547000,152.5227050781250000,20.4692802429199220,30.5759391784667970,60,106,88,81,64,15140,2147999396,2148486043,2150146294,2147881197,2147691108,2147809572,2149214336,2147287277,3515,2,15,49473
1352932817,5810,143.1799926757812500,20.5417995452880860,35.1251983642578100,218.0948028564453000,151.0908966064453000,20.5131092071533200,30.5974693298339840,60,107,87,81,62,15138,2148061394,2148636763,2150415652,2147880640,2147714322,2147900004,2149348059,2147300096,705,3,15,26548
1352932895,5810,139.4199981689453000,20.7054004669189450,35.1309013366699200,216.7312927246093800,146.3742065429687500,20.6575508117675780,30.6056995391845700,64,107,89,81,63,15134,2148123328,2148761188,2150600667,2147884626,2147736201,2147965686,2149419410,2147307218,1263,2,15,40940
1352933016,5810,136.3399963378906200,20.9060993194580080,35.1636009216308600,217.3244934082031200,139.4364929199218800,20.8700809478759770,30.4829597473144530,65,106,87,82,63,15139,2148222729,2149038281,2151102564,2147888804,2147781385,2148125229,2149671177,2147324553,2080,2,15,20454
1352933234,5807,131.9799957275390600,21.0438995361328120,35.1716995239257800,218.3845062255859400,133.9394989013672000,21.0385494232177730,30.3556499481201170,66,105,87,80,63,15129,2148067008,2148495744,2149956827,2147884553,2147714560,2147815908,2149138093,2147286308,1736,2,15,50816
1352933344,5811,128.1000061035156200,21.0970993041992200,35.1712989807128900,218.3874053955078000,132.1251983642578000,21.0941791534423830,30.3316307067871100,69,107,88,82,62,15128,2147898496,2147899977,2148734409,2147873810,2147642368,2147465645,2148515794,2147242532,568,2,15,22182
1352933465,5810,124.0100021362304700,21.1924991607666000,35.1805000305175800,218.4176025390625000,129.3760986328125000,21.1784706115722660,30.2940101623535160,70,108,90,81,62,15123,2148501979,2149451090,2151615588,2147901650,2147885860,2148328630,2149863204,2147345298,3292,2,15,24395
1352933565,5809,119.4700012207031200,21.4197998046875000,35.2089004516601560,219.1340942382812500,121.9757995605468800,21.4054908752441400,30.1603507995605470,69,110,88,81,62,15119,2148914761,2150288009,2153068022,2147925440,2148056822,2148816594,2150569152,2147395675,2900,2,15,64578
1352933642,5806,115.4700012207031200,21.6100997924804700,35.2307014465332000,222.0211029052734400,115.8553009033203100,21.5933609008789060,29.9340095520019530,73,109,90,83,63,15119,2149258724,2150899648,2154009243,2147948489,2148203401,2149127689,2150946651,2147430939,2426,2,15,1551
1352933719,5809,111.9400024414062500,21.9559001922607420,35.2361984252929700,223.4841003417968800,107.1374969482421900,21.8611392974853500,29.7477607727050780,77,116,90,83,63,15105,2149239981,2150581805,2153151305,2147943396,2148203830,2148963712,2150591323,2147409526,1542,3,15,21822
1352933842,5812,108.0599975585937500,22.0848999023437500,35.2331008911132800,223.8379974365234400,100.1231994628906200,22.0767707824707030,29.6397399902343750,84,115,86,82,63,15100,2150187163,2152376886,2156203913,2148003419,2148596763,2149938953,2151977408,2147517723,2413,2,15,20773
1352933985,5804,104.0500030517578100,22.2611999511718750,35.2419013977050800,223.1520996093750000,94.5887069702148400,22.2470207214355470,29.6022090911865230,94,118,93,82,62,15093,2150883629,2153417225,2157744493,2148046299,2148876288,2150458322,2152626797,2147573577,890,2,15,36110
1352934162,5805,99.1800003051757800,22.4582996368408200,35.2549018859863300,224.0278930664062500,87.8778610229492200,22.4536094665527340,29.4727191925048830,100,121,88,83,62,15076,2151976886,2155066587,2160258432,2148141394,2149310701,2151233435,2153650377,2147679369,472,2,16,2274
1352934217,5802,96.9899978637695300,22.5359001159667970,35.2570991516113300,225.0879974365234400,85.9713973999023400,22.5123291015625000,29.3960304260253900,105,124,92,81,62,15071,2152563904,2155890304,2161439241,2148193773,2149546916,2151615104,2154124909,2147726930,347,2,15,50881
1352934272,5810,94.9000015258789000,22.5723991394042970,35.2566986083984400,225.9906005859375000,83.8634109497070300,22.5772590637207030,29.3250007629394530,106,118,91,82,62,15068,2151839497,2154429394,2158979547,2148146441,2149248402,2150849444,2153075556,2147642121,3275,2,15,46523
1352934327,5810,92.7600021362304700,22.6779003143310550,35.2425003051757800,226.5258026123047000,81.0346374511718800,22.6644401550292970,29.2627906799316400,114,123,90,82,61,15058,2152767908,2155860013,2161078646,2148225764,2149567680,2151330011,2153647067,2147708470,2557,2,16,52078
1352934382,5803,90.8700027465820300,22.7544994354248050,35.2400016784668000,227.3614959716797000,78.6785202026367200,22.7370605468750000,29.1921195983886720,123,124,88,83,60,15044,2152249060,2154682532,2158750244,2148156288,2149455113,2150942747,2153003986,2147652114,1854,2,16,34430
1352934437,5812,89.0899963378906200,22.8241004943847660,35.2363014221191400,228.0756072998047000,76.3419799804687500,22.8091106414794920,29.1278305053710940,134,124,88,83,61,15038,2154889344,2159051565,2165543753,2148401481,2150432091,2152737764,2155387757,2147889435,1544,2,16,62519
1352934515,5807,86.1900024414062500,22.9129009246826170,35.2350006103515600,229.0352020263672000,73.2731399536132800,22.9037704467773440,29.0428905487060550,129,125,92,83,62,15027,2150593883,2151417728,2153120548,2148019428,2148708717,2149085312,2150291593,2147428196,1198,2,15,31529
1352934570,5806,83.4899978637695300,23.0461006164550780,35.2298011779785160,229.5355072021484400,68.9908828735351600,23.0359191894531250,28.9644699096679700,141,126,87,84,62,15021,2157050450,2161433654,2167896265,2148556736,2151148891,2153412891,2155907492,2147989750,823,1,16,23134
1352934625,5806,81.0699996948242200,23.0984001159667970,35.2293014526367200,230.2077026367187500,67.1224670410156200,23.0936107635498050,28.9088802337646500,144,130,90,83,61,15003,2151779245,2152766089,2154583945,2148083904,2149145737,2149632713,2150903552,2147495378,3306,2,16,16255
1352934680,5810,78.7399978637695300,23.1546993255615230,35.2285995483398440,230.9710998535156200,65.4802627563476600,23.1443195343017580,28.8519096374511720,146,129,90,84,62,15005,2160616539,2166100397,2173624832,2148882605,2152336905,2154933732,2157704493,2148217389,2685,2,16,60245
1352934735,5808,76.5199966430664000,23.2404003143310550,35.2244987487793000,231.5081024169922000,62.6579895019531250,23.2315006256103500,28.7911205291748050,149,125,92,84,62,15000,2163921709,2170413449,2178987968,2149189357,2153494025,2156615186,2159717458,2148460352,3007,2,16,24608
1352934790,5807,74.2300033569336000,23.3861007690429700,35.2253990173339840,231.8647003173828000,58.1019287109375000,23.3722991943359380,28.7167491912841800,152,125,91,84,61,14977,2166306322,2173235968,2182028333,2149399917,2154352694,2157663195,2160813229,2148610587,3236,2,16,14658
1352934847,5810,72.0100021362304700,23.5545005798339840,35.2299995422363300,232.4279022216797000,54.1299591064453100,23.4951400756835940,28.6405906677246100,134,125,92,84,63,15012,2169387821,2176913609,2186022134,2149684864,2155437769,2159019556,2162221915,2148796278,440,2,15,57328
1352934913,5810,70.1100006103515600,23.6879997253417970,35.2330017089843750,232.8468933105468800,49.6580009460449200,23.6335105895996100,28.5647106170654300,119,119,95,84,61,15016,2171443940,2179214784,2188274870,2149953654,2156432713,2160302592,2163469330,2148978057,781,2,16,53461
1352934990,5809,68.3300018310546900,23.7215995788574220,35.2363014221191400,234.5184936523437500,47.2618484497070300,23.7077007293701170,28.4571208953857420,100,118,89,84,61,15032,2156965485,2158292141,2159862902,2148387684,2151208091,2152047616,2153290221,2147789997,1529,2,16,16646
1352935089,5809,66.5100021362304700,23.7803993225097660,35.2369003295898440,235.4329986572265600,45.5967292785644500,23.7592601776123050,28.3940696716308600,101,121,90,84,61,15030,2158028937,2159439286,2161049590,2148497865,2151598290,2152449462,2153572626,2147841499,1479,2,16,28962
1352935190,5807,63.6500015258789060,23.9298992156982420,35.2350997924804700,236.9411926269531200,41.0586700439453100,23.8998699188232420,28.2683906555175780,101,120,93,83,59,15025,2182538505,2192313225,2202435712,2151416484,2160992329,2165973257,2168939995,2149774939,1393,2,16,42931
1352935245,5808,61.4799995422363300,24.0093002319335940,35.2369003295898440,238.8018951416015600,37.9448890686035160,23.9964008331298830,28.1452903747558600,98,118,92,86,62,15031,2186913920,2196659218,2206337362,2152040950,2163201764,2168536969,2171322724,2150157101,1993,1,16,7032
1352935300,5808,59.5200004577636700,24.1084003448486330,35.2365989685058600,239.4801940917968800,34.2544898986816400,24.1108703613281250,28.0692100524902340,97,120,92,83,62,15027,2192709129,2202941385,2212768978,2152796370,2165775652,2171580626,2174065773,2150547812,1515,2,16,8113
1352935355,5806,57.9700012207031250,24.3208007812500000,35.2346000671386700,240.0429992675781200,28.2591209411621100,24.2969894409179700,27.9694690704345700,91,120,93,85,60,15023,2195180809,2205127442,2214416356,2153223140,2167439753,2173408886,2175668864,2150796224,1675,2,16,48663
1352935499,5804,56.6599998474121100,24.6443996429443360,35.2364997863769500,241.6784973144531200,17.6381607055664060,24.6271591186523440,27.7656707763671880,84,122,91,84,57,15016,2206691556,2217409426,2227309302,2154485650,2173181074,2180304621,2181985426,2151574208,1218,1,16,36262
1352935664,5806,54.6800003051757800,25.0765991210937500,35.2379989624023440,242.6660003662109400,4.2378010749816895,25.0446090698242200,27.5576992034912100,76,123,93,84,59,15022,2212159158,2220763638,2229067254,2154935286,2176949997,2183741421,2184222966,2151906496,3585,2,16,466
1352935853,5808,51.8600006103515600,25.2490005493164060,35.2019996643066400,242.5825042724609400,-1.3764740228652954,25.2198104858398440,27.4924507141113280,72,129,93,85,57,15022,2232731904,2242547821,2250949001,2158225197,2189500022,2197541046,2195879478,2153596379,772,2,16,50082
1352935908,5807,50.1699981689453100,25.4801006317138670,35.1896018981933600,240.7030944824218800,-8.7107505798339840,25.4489707946777340,27.4855709075927730,74,123,92,86,58,15017,2240293193,2250292726,2258762267,2160036562,2195556388,2204160905,2201640832,2154477156,544,2,16,19852
1352936007,5809,48.7299995422363300,25.5832996368408200,35.1921005249023440,239.0785980224609400,-12.6752395629882810,25.5729808807373050,27.5089092254638670,70,128,96,84,56,15003,2238306560,2247785444,2255721106,2160226852,2196508278,2204372644,2201286848,2154465188,3171,2,16,25914
1352936162,5808,46.1899986267089840,25.6858997344970700,35.1982002258300800,236.8619995117187500,-16.1968803405761720,25.6832199096679700,27.5647201538085940,69,123,93,86,54,15013,2245557376,2256447186,2264061010,2162352557,2208004214,2214467264,2207801234,2155567689,2189,2,16,55032
1352936228,5808,44.0600013732910160,25.7066001892089840,35.2019996643066400,236.2214050292968800,-16.8653507232666000,25.7041492462158200,27.5853691101074220,67,123,91,84,54,15006,2252379254,2263216667,2270451291,2164358390,2216541074,2222030976,2212632804,2156545499,1454,2,17,20572
1352936294,5809,41.8400001525878900,25.8124008178710940,35.2108993530273440,235.5350952148437500,-20.1375694274902340,25.8066692352294920,27.5761299133300780,66,123,91,85,57,14997,2259305810,2269669796,2276969353,2167513572,2227277540,2232070838,2219951661,2157663561,1074,2,16,30956
1352936349,5810,39.9799995422363300,25.8831996917724600,35.2295989990234400,235.1134033203125000,-22.5447292327880860,25.8821201324462900,27.5656108856201170,64,123,91,85,58,15009,2266333677,2276692580,2284607570,2170037366,2236156406,2240742308,2226870180,2158714450,58,2,15,27850
1352936427,5809,36.9000015258789060,26.0090999603271500,35.2521018981933600,234.2579956054687500,-26.7482109069824220,26.0139808654785160,27.5529899597167970,61,122,91,85,57,15007,2278695689,2290233115,2299090340,2175816036,2251734884,2254723163,2236559506,2160868690,3249,1,17,25600
1352936482,5807,34.0600013732910160,26.0622997283935550,35.2644004821777340,234.0155944824218800,-28.3367195129394530,26.0638408660888670,27.5445308685302730,59,124,94,84,59,15010,2289041398,2300956790,2310415405,2182779611,2264121517,2265731282,2243857005,2162698587,3178,1,16,43296
1352936537,5807,31.1499996185302730,26.0652999877929700,35.2654991149902340,233.8482971191406200,-28.6066799163818360,26.0723209381103500,27.5487403869628900,58,124,94,85,59,15010,2297786331,2309958884,2319630336,2188441499,2280416950,2280870829,2254674422,2164978496,3064,3,17,6376
1352936592,5808,28.1200008392334000,26.0701999664306640,35.2669982910156250,233.9190063476562500,-28.8156700134277340,26.0788803100585940,27.5429592132568360,56,122,91,86,54,15011,2313560128,2327014390,2337867346,2199913572,2302234267,2301425517,2269524077,2169005348,2944,2,16,12467